TimeIST,TemperatureF,Dew PointF,Humidity,Sea Level PressureIn,VisibilityMPH,Wind Direction,Wind SpeedMPH,Gust SpeedMPH,PrecipitationIn,Events,Conditions,WindDirDegrees,DateUTC
12:10 AM,77.0,59.0,54,29.95,2.2,NW,3.5,-,N/A,,Smoke,310,2013-02-27 18:40:00
12:40 AM,75.2,60.8,61,29.95,2.2,NNW,5.8,-,N/A,,Smoke,340,2013-02-27 19:10:00
1:10 AM,75.2,62.6,65,29.95,2.2,NNW,4.6,-,N/A,,Smoke,330,2013-02-27 19:40:00
1:40 AM,75.2,64.4,69,29.92,2.2,NW,5.8,-,N/A,,Smoke,320,2013-02-27 20:10:00
2:10 AM,73.4,64.4,73,29.92,2.2,NW,8.1,-,N/A,,Smoke,320,2013-02-27 20:40:00
2:30 AM,72,64,70,29.92,1,North,6.9,,,,Haze,0,2013-02-27 21:00:00
2:40 AM,73.4,64.4,73,29.92,2.2,NNW,5.8,-,N/A,,Smoke,330,2013-02-27 21:10:00
3:10 AM,73.4,64.4,73,29.92,2.2,North,8.1,-,N/A,,Smoke,350,2013-02-27 21:40:00
3:40 AM,73.4,64.4,73,29.92,2.2,NNW,4.6,-,N/A,,Smoke,340,2013-02-27 22:10:00
4:10 AM,73.4,64.4,73,29.92,2.2,NNW,8.1,-,N/A,,Smoke,330,2013-02-27 22:40:00
4:40 AM,73.4,64.4,73,29.92,2.2,NNW,9.2,-,N/A,,Smoke,330,2013-02-27 23:10:00
5:10 AM,73.4,64.4,73,29.92,2.2,NNW,6.9,-,N/A,,Smoke,330,2013-02-27 23:40:00
5:30 AM,72,66,75,29.91,1,North,11.5,,,,Haze,0,2013-02-28 00:00:00
5:40 AM,71.6,64.4,78,29.92,2.2,NNW,6.9,-,N/A,,Smoke,340,2013-02-28 00:10:00
6:10 AM,71.6,64.4,78,29.92,2.2,NNW,5.8,-,N/A,,Smoke,330,2013-02-28 00:40:00
6:40 AM,71.6,64.4,78,29.92,2.2,NNW,4.6,-,N/A,,Smoke,340,2013-02-28 01:10:00
7:10 AM,71.6,64.4,78,29.95,2.5,NNW,4.6,-,N/A,,Smoke,330,2013-02-28 01:40:00
7:40 AM,71.6,62.6,73,29.95,2.5,NNE,4.6,-,N/A,,Smoke,20,2013-02-28 02:10:00
8:10 AM,71.6,62.6,73,29.95,2.2,ESE,6.9,-,N/A,,Smoke,120,2013-02-28 02:40:00
8:30 AM,72,64,69,29.96,1,Calm,Calm,,,,Haze,,2013-02-28 03:00:00
8:40 AM,73.4,60.8,65,29.98,2.2,SE,4.6,-,N/A,,Smoke,130,2013-02-28 03:10:00
9:10 AM,75.2,60.8,61,29.98,2.2,Calm,Calm,-,N/A,,Smoke,0,2013-02-28 03:40:00
9:40 AM,77.0,60.8,57,29.98,2.2,Calm,Calm,-,N/A,,Smoke,0,2013-02-28 04:10:00
10:10 AM,78.8,59.0,51,29.98,2.2,Calm,Calm,-,N/A,,Smoke,0,2013-02-28 04:40:00
11:10 AM,84.2,55.4,37,29.98,2.2,NNE,6.9,-,N/A,,Smoke,30,2013-02-28 05:40:00
11:30 AM,86,59,30,29.97,1,Calm,Calm,,,,Smoke,,2013-02-28 06:00:00
11:40 AM,87.8,53.6,31,29.98,2.5,North,5.8,-,N/A,,Smoke,350,2013-02-28 06:10:00
12:10 PM,89.6,51.8,27,29.95,2.5,NE,5.8,-,N/A,,Smoke,50,2013-02-28 06:40:00
1:10 PM,93.2,42.8,17,29.92,3.1,NE,6.9,-,N/A,,Smoke,40,2013-02-28 07:40:00
1:40 PM,91.4,59.0,34,29.89,3.7,WNW,6.9,-,N/A,,Unknown,290,2013-02-28 08:10:00
2:30 PM,91,60,26,29.88,1,NW,5.8,,,,Smoke,320,2013-02-28 09:00:00
2:40 PM,89.6,59.0,36,29.86,3.1,WNW,10.4,-,N/A,,Smoke,300,2013-02-28 09:10:00
3:10 PM,89.6,59.0,36,29.86,3.1,NW,9.2,-,N/A,,Smoke,310,2013-02-28 09:40:00
3:40 PM,89.6,57.2,33,29.86,3.1,NW,9.2,-,N/A,,Smoke,310,2013-02-28 10:10:00
4:10 PM,87.8,60.8,40,29.86,2.8,NW,11.5,-,N/A,,Smoke,310,2013-02-28 10:40:00
4:40 PM,86.0,62.6,45,29.83,2.8,NW,8.1,-,N/A,,Smoke,310,2013-02-28 11:10:00
5:10 PM,86.0,60.8,43,29.83,2.8,NW,10.4,-,N/A,,Smoke,310,2013-02-28 11:40:00
5:30 PM,85,61,34,29.85,1,North,4.6,,,,Smoke,0,2013-02-28 12:00:00
5:40 PM,86.0,55.4,35,29.83,2.8,NW,10.4,-,N/A,,Smoke,320,2013-02-28 12:10:00
6:10 PM,84.2,57.2,40,29.83,2.5,NW,8.1,-,N/A,,Smoke,320,2013-02-28 12:40:00
6:40 PM,84.2,57.2,40,29.86,2.2,NW,6.9,-,N/A,,Smoke,320,2013-02-28 13:10:00
7:40 PM,82.4,57.2,42,29.86,1.9,North,10.4,-,N/A,,Smoke,350,2013-02-28 14:10:00
8:10 PM,82.4,57.2,42,29.86,1.9,North,10.4,-,N/A,,Smoke,350,2013-02-28 14:40:00
8:30 PM,80,57,35,29.88,1,North,5.8,,,,Smoke,0,2013-02-28 15:00:00
8:40 PM,80.6,57.2,45,29.89,1.7,NNW,8.1,-,N/A,,Smoke,340,2013-02-28 15:10:00
9:40 PM,80.6,55.4,42,29.92,1.9,NNE,5.8,-,N/A,,Smoke,20,2013-02-28 16:10:00
10:10 PM,80.6,55.4,42,29.92,1.9,NNW,6.9,-,N/A,,Smoke,340,2013-02-28 16:40:00
10:40 PM,80.6,57.2,45,29.92,1.9,NW,5.8,-,N/A,,Smoke,320,2013-02-28 17:10:00
11:10 PM,78.8,57.2,47,29.92,2.2,NW,3.5,-,N/A,,Smoke,310,2013-02-28 17:40:00
11:30 PM,72,59,55,29.92,1,Calm,Calm,,,,Smoke,,2013-02-28 18:00:00
11:40 PM,78.8,53.6,42,29.92,2.2,Calm,Calm,-,N/A,,Smoke,0,2013-02-28 18:10:00